This demonstration page uses our WeatherBlox Daily Observations layout. Learn more.

Left ArrowRight Arrow

34.74481, -87.66753

Hourly Observations for May 7, 2022

Temp ( °F °C ) Dew Point ( °F °C ) Humidity (%) Winds ( mph kmh ) Pressure ( in mb ) Visibility ( mi km ) Precip ( " mm )
12:53 am 00:53 Cloudy 61 16.1 55 12.8 81 81 NW 13 20 29.76 1008 10 16 0.00 0.00
1:53 am 01:53 Cloudy 60 15.6 54 12.2 80 80 NW 8 13 29.76 1008 10 16 0.00 0.00
2:53 am 02:53 Mostly Clear 59 15 53 11.7 81 81 WNW 12 19 29.75 1008 10 16 0.00 0.00
3:53 am 03:53 Cloudy 59 15 53 11.7 81 81 WNW 9 15 29.76 1008 10 16 0.00 0.00
4:53 am 04:53 Cloudy 59 15 53 11.7 81 81 NW 10 17 29.76 1008 10 16 0.00 0.00
5:53 am 05:53 Cloudy 59 15 52 11.1 78 78 NW 8 13 29.77 1008 10 16 0.00 0.00
6:53 am 06:53 Cloudy 59 15 51 10.6 75 75 NW 10 17 29.79 1009 10 16 0.00 0.00
7:26 am 07:26 Cloudy 59 15 51 10.6 75 75 NW 10 17 29.81 1009 10 16 0.00 0.00
7:53 am 07:53 Cloudy 59 15 52 11.1 78 78 NW 7 11 29.80 1009 10 16 0.00 0.00
8:53 am 08:53 Cloudy 60 15.6 52 11.1 75 75 NW 7 11 29.82 1010 10 16 0.00 0.00
9:53 am 09:53 Cloudy 61 16.1 53 11.7 75 75 NNW 9 15 29.82 1010 10 16 0.00 0.00
10:19 am 10:19 Cloudy 62 16.7 54 12.2 75 75 NW 7 11 29.82 1010 10 16 0.00 0.00
10:41 am 10:41 Cloudy 62 16.7 53 11.7 73 73 NW 10 17 29.83 1010 10 16 0.00 0.00
10:53 am 10:53 Cloudy 63 17.2 54 12.2 73 73 NW 7 11 29.83 1010 10 16 0.00 0.00
11:51 am 11:51 Cloudy 63 17 54 12 73 73 NNW 12 19 29.83 1010 10 16 0.00 0.00
11:53 am 11:53 Cloudy 63 17.2 53 11.7 70 70 NNW 8 13 29.83 1010 10 16 0.00 0.00
12:35 pm 12:35 Cloudy 63 17.2 54 12.2 73 73 WNW 12 19 29.84 1011 10 16 0.00 0.00
12:49 pm 12:49 Cloudy 63 17 54 12 73 73 WNW 14 22 29.84 1011 10 16 0.00 0.00
12:53 pm 12:53 Cloudy 63 17.2 54 12.2 73 73 WNW 10 17 29.83 1010 10 16 0.00 0.00
1:53 pm 13:53 Cloudy 64 17.8 54 12.2 70 70 NNW 9 15 29.83 1010 10 16 0.00 0.00
2:02 pm 14:02 Cloudy 64 17.8 54 12.2 70 70 NW 6 9 29.83 1010 10 16 0.00 0.00
2:53 pm 14:53 Cloudy 63 17.2 54 12.2 73 73 NNW 7 11 29.84 1011 10 16 0.00 0.00
3:02 pm 15:02 Cloudy 63 17.2 54 12.2 73 73 WNW 12 19 29.84 1011 10 16 0.00 0.00
3:53 pm 15:53 Cloudy 62 16.7 53 11.7 73 73 NW 10 17 29.85 1011 10 16 0.00 0.00
4:34 pm 16:34 Cloudy 65 18.3 55 12.8 70 70 NNW 7 11 29.84 1011 10 16 0.00 0.00
4:53 pm 16:53 Cloudy 64 17.8 54 12.2 70 70 N 9 15 29.84 1011 10 16 0.00 0.00
5:53 pm 17:53 Cloudy 63 17.2 53 11.7 70 70 VRB 5 7 29.85 1011 10 16 0.00 0.00
6:53 pm 18:53 Cloudy 62 16.7 53 11.7 73 73 N 8 13 29.85 1011 10 16 0.00 0.00
7:53 pm 19:53 Mostly Clear 59 15 52 11.1 78 78 NNE 5 7 29.86 1011 10 16 0.00 0.00
8:53 pm 20:53 Mostly Clear 58 14.4 52 11.1 81 81 Calm 29.88 1012 10 16 0.00 0.00
9:53 pm 21:53 Partly Cloudy 56 13.3 52 11.1 87 87 NE 5 7 29.88 1012 10 16 0.00 0.00
10:53 pm 22:53 Cloudy 57 13.9 53 11.7 87 87 N 3 6 29.89 1012 10 16 0.00 0.00
11:53 pm 23:53 Cloudy 56 13.3 52 11.1 87 87 Calm 29.89 1012 10 16 0.00 0.00

Powered by AerisWeather